Location: Seasalter
(51.3333°N, 1.0167°E)
Time: 05:28:53
(UTC+00:00)

COBE Rocket - Pass Details

Date: 26 September 2023
Orbit: 679 x 778 km, 97.1° (Epoch: 29 November)

Event Time Altitude Azimuth Distance (km) Brightness Sun altitude
Rises 04:04:43 0° 13° (NNE) 3,074 7.6 -16.6°
Reaches altitude 10° 04:06:57 10° 14° (NNE) 2,163 6.8 -16.3°
Maximum altitude 04:11:42 85° 103° (ESE) 716 3.8 -15.6°
Drops below altitude 10° 04:16:32 10° 193° (SSW) 2,203 6.1 -14.9°
Enters shadow 04:18:47 - 193° (SSW) 3,113 6.9 -14.5°
